Presure
199 197 192 209 199 203 170 185 177 192 191 200 194 186 198 184 198 200 218 171 244 196 238 245 233 226 239 254 240 222 212 209 207 207 202 212 205 226 202 206 217 214 192 195
204 193 202 205 189 212 160 197 185 196 192 192 202 197 190 204 197 198 195 201 234 206 182 195 240 236 233 236 224 216 221 212 210 210 214 214 210 211 211 204 201 194 200 198
217 207 202 206 201 200 198 201 184 193 188 196 198 205 201 188 189 182 193 224 205 223 225 200 227 176 188 205 249 237 227 224 223 217 215 214 214 213 209 206 209 212 214 214
219 205 210 187 195 201 199 195 188 187 188 199 195 201 210 194 195 191 200 202 204 230 230 210 226 223 202 202 203 262 257 251 246 241 236 231 229 223 219 226 229 227 226 223
211 219 216 212 197 199 199 193 189 179 187 198 197 214 202 192 196 187 191 206 190 159 206 233 208 213 221 237 228 203 218 233 212 256 251 247 244 245 246 242 236 233 235 234
235 221 218 212 203 206 204 202 197 193 195 189 198 229 210 197 202 182 182 190 190 190 200 215 204 195 238 199 195 203 216 235 247 260 251 251 250 241 245 241 243 241 236 230
269 228 221 204 207 181 215 184 204 195 202 188 199 186 211 203 201 191 189 180 186 190 190 199 188 221 217 224 223 224 220 230 227 235 248 261 254 251 244 239 237 232 228 226
240 276 237 239 206 211 159 109 208 190 191 197 241 219 210 195 197 193 200 194 192 194 178 186 197 189 222 207 208 201 210 221 223 220 217 255 255 246 243 238 236 234 233 234
262 282 296 275 218 216 231 210 211 225 221 225 230 213 205 204 204 202 198 184 197 197 179 213 189 199 193 193 196 202 225 214 215 225 214 214 216 249 225 216 212 227 207 222
278 264 262 263 115 226 221 222 217 214 223 258 202 214 207 187 186 201 207 199 197 181 193 190 212 195 209 195 195 209 208 211 206 219 224 210 227 216 258 231 251 224 210 203
230 277 272 274 264 261 259 252 234 249 245 191 217 213 210 203 207 199 188 207 198 200 184 191 200 217 196 221 199 213 215 210 198 204 210 224 210 235 221 252 182 228 219 220
256 264 269 256 246 243 268 237 175 221 235 222 213 216 211 190 198 193 210 208 196 194 195 206 223 222 205 181 209 198 216 204 210 209 209 195 225 228 233 233 232 235 222 235
286 270 260 252 257 242 247 234 230 241 215 219 213 218 201 193 208 204 204 213 191 185 206 218 222 225 169 208 204 210 215 205 205 202 195 207 221 223 234 217 228 243 231 239
275 282 250 248 244 237 234 231 215 213 216 208 221 214 207 190 205 207 211 207 201 206 210 219 222 182 209 214 207 211 222 204 195 190 202 211 224 222 230 221 224 238 229 240
254 260 248 243 236 237 225 223 215 218 216 217 210 202 206 191 195 213 201 206 206 205 208 222 211 203 211 213 211 187 224 203 200 214 199 220 222 220 223 225 236 241 252 244
249 247 242 237 232 237 229 219 219 221 219 214 212 203 204 211 214 214 208 203 205 206 215 215 191 210 215 217 188 219 217 203 213 208 227 217 222 223 233 240 246 244 239 240
233 241 236 243 234 235 232 222 225 224 224 214 212 213 212 202 204 208 207 211 216 219 180 202 217 212 220 181 218 218 207 198 211 218 222 225 219 242 237 247 241 226 236 240
236 245 234 245 236 231 230 222 225 225 223 221 221 214 216 218 218 214 219 225 222 225 207 221 204 221 179 218 204 206 211 216 219 226 225 222 245 236 247 246 232 239 240 237
237 180 238 235 238 231 226 222 222 223 225 230 226 225 226 223 218 221 221 174 225 216 217 221 193 219 216 193 203 212 217 224 226 220 217 239 235 246 242 228 244 238 239 247
236 237 236 231 228 227 226 230 230 226 222 220 220 221 222 222 221 220 219 216 218 218 221 223 217 203 219 221 217 217 228 222 220 201 234 244 249 253 244 246 239 235 243 244
236 236 236 232 227 225 225 229 230 222 221 219 219 221 226 221 215 217 220 222 217 228 232 215 225 226 216 209 229 227 217 214 240 238 255 251 244 250 247 239 242 242 253 253
237 235 229 228 228 229 229 228 227 225 224 225 223 221 217 221 225 230 230 235 228 228 230 230 218 219 230 232 227 221 235 241 233 257 248 252 241 254 243 243 253 257 274 273
227 229 231 233 234 238 239 236 229 226 226 226 228 230 227 227 237 243 234 235 235 223 225 230 224 231 222 238 239 244 244 244 254 257 246 244 245 253 259 268 276 268 268 277
236 236 238 240 242 243 244 245 247 247 240 237 237 237 237 237 236 232 229 231 230 230 230 219 212 239 240 248 250 248 260 255 260 251 252 260 258 269 279 267 274 278 289 295
231 232 229 233 231 231 231 227 226 227 231 235 228 223 230 230 234 228 228 224 221 238 241 241 242 247 258 255 260 261 253 253 260 262 262 273 273 274 279 290 300 307 352 442
243 243 241 241 239 228 225 227 226 224 224 227 232 238 238 233 235 235 242 247 251 249 252 261 265 261 252 262 273 269 266 266 267 274 280 281 287 297 303 321 443 440 453 470
239 239 238 229 231 229 228 234 236 234 231 230 240 240 251 261 263 257 256 263 260 258 255 279 284 276 267 266 266 273 281 284 282 286 296 302 316 414 453 479 482 474 464 450
Wind_Speed
76 76 64 71 59 56 42 41 46 48 41 48 39 30 40 25 28 17 28 24 28 26 29 32 26 28 29 28 28 39 44 49 52 52 52 59 66 61 68 68 68 68 70 71
83 67 77 73 47 60 41 52 43 49 43 47 47 42 42 44 36 27 22 26 33 22 37 34 32 34 33 30 30 33 38 43 47 48 49 50 54 57 60 65 67 70 71 72
91 87 83 63 64 62 61 57 46 45 45 53 50 42 46 41 40 30 25 38 24 31 33 28 31 38 33 33 34 36 40 43 46 48 50 53 55 56 59 62 65 67 68 69
90 84 79 43 62 67 59 58 51 48 47 53 48 47 48 46 44 42 36 33 33 34 34 32 32 32 29 31 33 33 34 36 39 43 47 52 55 59 62 62 63 65 66 68
87 89 82 76 65 70 63 60 57 53 49 52 51 48 52 55 49 38 43 46 35 33 33 30 35 35 37 30 36 39 40 40 43 43 47 50 53 56 58 59 61 64 65 67
97 91 77 81 76 78 64 60 67 58 57 50 58 48 51 54 52 40 37 41 37 35 41 39 38 35 25 40 42 47 46 38 40 42 45 47 50 53 54 55 57 59 61 62
94 76 80 71 80 52 72 54 75 66 63 55 56 38 55 55 54 52 47 42 42 42 39 43 37 35 42 37 38 40 43 44 46 49 52 52 53 54 56 58 59 60 63 66
64 81 82 89 75 79 42 23 71 60 58 64 47 53 58 58 59 58 53 53 45 52 39 41 50 46 46 49 52 55 51 45 47 50 52 56 56 55 58 58 61 63 64 68
84 64 57 75 83 78 87 72 76 73 71 62 50 57 61 61 58 58 57 49 51 57 40 49 53 58 57 56 58 62 49 52 50 52 54 56 58 60 63 66 68 65 68 65
76 67 64 62 20 85 82 80 73 67 66 54 48 59 62 55 55 57 59 54 54 46 58 54 53 62 58 60 58 62 60 57 56 57 61 59 67 64 65 65 66 66 74 77
56 56 53 46 50 53 60 64 63 59 58 58 59 61 64 64 57 61 54 59 60 60 52 62 63 61 63 60 64 61 59 61 62 60 61 70 67 73 70 68 70 72 78 81
58 56 49 48 49 52 51 58 32 46 58 60 57 63 63 56 61 54 62 62 60 63 65 65 63 64 66 57 66 67 65 66 66 66 66 67 80 80 75 76 76 78 80 82
56 48 48 52 54 57 52 62 66 58 56 63 62 64 58 61 65 64 63 64 61 59 66 69 67 66 49 70 71 71 70 68 68 71 75 74 83 85 87 79 85 86 84 87
52 49 51 56 57 58 58 63 66 62 62 61 66 63 63 53 65 65 63 60 63 66 70 73 72 57 71 74 75 75 74 72 76 73 77 82 91 90 95 88 92 93 90 93
48 49 56 59 60 64 68 70 69 69 66 65 60 58 64 56 60 67 61 64 66 68 73 77 70 74 76 78 79 66 79 74 77 80 80 92 94 93 96 98 100 100 101 100
45 50 55 62 63 66 72 71 72 73 72 67 67 62 63 68 72 70 66 65 70 72 79 74 66 79 81 83 70 82 79 76 82 81 97 94 100 104 108 105 104 105 104 106
47 55 59 61 66 70 73 71 76 77 75 68 69 70 70 63 68 71 71 74 80 79 58 77 80 79 85 66 85 83 79 80 87 97 100 106 103 112 111 108 108 101 109 113
52 55 59 62 68 68 69 67 71 75 75 74 76 73 75 77 77 76 81 81 83 79 77 81 76 87 67 86 78 82 88 96 101 106 107 107 115 113 112 111 108 112 115 115
54 36 58 59 63 66 66 66 68 70 74 75 78 79 80 81 76 80 80 56 82 80 81 87 73 89 88 74 85 91 98 104 105 102 99 115 115 113 111 106 116 117 121 124
56 56 57 58 59 62 63 66 70 70 71 72 74 76 79 80 80 79 80 80 84 86 90 91 89 78 91 94 95 99 106 102 101 77 115 117 114 114 115 117 116 114 125 126
58 59 60 61 63 63 65 70 73 71 73 73 75 77 82 78 78 83 88 91 88 96 95 89 95 95 92 88 106 107 96 94 115 114 116 114 116 119 118 116 121 122 128 127
60 61 57 59 63 67 70 73 74 73 75 77 77 79 80 86 90 94 95 97 93 94 95 96 92 94 104 105 102 96 111 115 111 116 115 118 114 121 116 120 127 123 133 132
51 55 59 64 68 72 75 76 75 75 76 78 81 83 83 85 88 90 89 91 92 92 96 101 97 105 97 109 113 115 115 115 117 119 116 116 117 122 126 130 132 129 131 137
58 60 64 69 72 74 77 79 80 80 78 77 79 82 83 85 86 87 89 93 96 98 102 92 83 110 113 115 115 117 118 117 119 117 118 123 123 129 134 129 134 137 141 145
52 56 55 61 62 63 65 65 67 70 74 77 77 78 82 86 90 90 93 92 91 105 107 109 111 114 117 115 116 116 114 115 120 122 123 129 130 131 135 140 144 146 138 96
67 69 69 70 71 68 68 69 71 72 75 79 83 87 89 91 94 97 102 104 105 107 109 112 115 113 110 116 120 120 120 121 123 126 131 132 135 140 143 147 95 94 89 82
71 73 74 70 71 71 73 79 82 82 81 82 91 94 99 103 103 101 102 106 106 106 106 112 113 113 114 115 117 123 126 130 129 130 136 139 143 107 89 80 77 76 76 76
Wind_Direction
245 249 256 251 261 257 258 256 260 272 279 287 285 271 283 257 291 292 315 274 323 286 295 290 288 284 273 258 241 239 244 247 253 254 256 251 253 259 265 266 270 274 280 281
244 250 252 251 254 256 254 262 256 268 271 274 287 277 277 289 288 292 286 302 323 299 277 281 293 287 283 279 268 262 255 260 261 263 263 261 263 264 266 268 271 276 276 280
239 244 248 249 256 257 258 261 254 266 266 276 280 280 274 279 283 254 279 308 295 310 313 293 286 280 282 281 279 275 274 274 273 272 270 271 271 273 274 276 276 277 280 282
236 247 248 247 250 254 253 256 255 255 260 275 272 279 271 275 278 283 288 294 301 308 309 302 300 298 293 289 296 294 290 285 282 280 279 277 276 274 277 281 284 285 285 285
241 241 246 247 251 253 251 253 256 255 261 270 273 277 270 275 276 275 288 296 289 292 300 299 304 307 303 303 296 303 305 300 295 294 290 289 289 288 287 283 281 281 283 285
238 240 246 246 250 251 252 255 258 259 261 263 273 277 263 267 272 276 280 288 290 288 300 302 306 301 305 305 297 306 301 313 318 305 298 293 289 287 288 287 286 288 290 291
236 242 239 246 250 250 252 246 256 254 260 258 265 261 258 261 268 274 278 284 289 291 295 299 297 300 303 297 302 304 300 314 318 328 323 307 301 298 294 295 297 296 294 293
242 238 238 241 245 251 247 238 255 260 256 261 259 252 255 263 266 272 275 280 284 292 274 296 300 300 300 300 301 303 302 316 317 314 312 318 307 301 299 298 296 295 294 293
241 238 222 239 244 251 253 256 261 263 261 261 249 249 255 259 266 272 274 283 284 287 281 292 300 299 302 303 304 303 312 308 311 323 314 315 314 306 306 306 307 298 307 302
232 238 240 238 255 243 248 251 255 256 261 253 246 247 255 266 272 269 275 275 282 288 291 294 291 293 292 300 299 302 303 302 307 319 318 311 322 316 301 306 297 294 301 303
231 231 232 228 237 243 249 249 251 252 247 250 243 247 253 259 262 267 278 279 281 283 290 289 291 290 296 294 299 299 300 300 300 304 311 317 309 320 314 304 307 298 299 301
227 229 223 225 235 237 235 246 252 241 234 238 245 248 249 267 267 273 272 275 277 280 283 288 291 290 290 296 297 299 301 297 304 304 307 307 316 318 314 313 307 305 299 306
220 222 217 225 218 227 226 233 239 233 242 242 245 246 257 267 264 268 272 277 278 282 284 291 291 290 291 293 297 297 299 295 298 300 301 308 314 314 314 306 312 311 304 310
219 211 213 220 220 221 229 232 244 246 239 249 246 249 255 272 265 269 274 278 280 283 288 292 291 289 290 292 295 294 299 293 295 301 301 308 312 313 314 311 310 311 307 310
215 209 210 217 221 218 224 232 245 245 250 247 252 255 259 269 272 271 276 280 282 284 286 291 290 289 291 292 293 297 301 291 296 303 299 310 310 310 311 308 309 312 312 315
214 212 216 218 223 223 224 236 242 245 248 252 255 260 265 267 271 275 277 277 280 282 287 288 289 289 290 289 295 298 299 294 301 301 306 307 309 310 308 309 312 314 314 315
215 214 220 222 223 225 227 236 240 244 247 252 258 262 264 269 272 274 276 278 280 282 288 284 285 288 287 297 294 298 294 295 301 306 307 307 308 306 308 312 312 310 312 312
218 221 223 226 226 229 233 240 243 247 251 253 255 260 264 266 268 272 275 276 281 283 281 283 286 288 295 295 294 297 300 302 303 304 304 305 305 310 309 309 309 309 310 310
224 238 227 230 232 235 239 244 248 251 254 257 259 263 266 268 273 275 278 289 282 282 284 286 290 290 293 294 296 298 298 299 300 302 303 306 307 306 306 305 307 309 307 305
229 230 232 234 236 239 243 246 248 251 256 260 263 266 269 273 276 278 281 282 282 283 284 285 287 292 292 294 294 295 296 299 301 302 304 303 304 303 304 304 305 305 304 304
232 235 236 238 241 246 249 249 250 255 259 263 266 269 271 275 279 280 280 281 281 282 283 286 287 289 291 293 293 295 298 299 298 299 302 302 302 302 303 304 303 302 302 302
236 239 244 246 249 250 252 253 255 259 262 265 268 271 275 274 275 276 277 278 279 281 283 285 289 290 290 291 293 295 296 298 299 300 299 301 301 299 300 301 301 302 302 303
248 250 251 252 253 254 254 255 258 261 264 267 268 269 271 273 275 276 276 279 281 285 286 287 289 290 294 292 294 296 297 297 298 298 298 298 298 298 299 300 301 302 303 303
250 253 254 255 256 257 259 260 261 263 265 268 271 272 274 276 277 279 281 283 285 286 287 290 293 290 292 293 293 294 295 295 295 296 297 297 298 299 300 301 301 301 301 302
262 263 267 267 268 268 268 269 270 271 272 273 274 277 278 279 281 282 283 285 287 284 285 287 290 290 292 292 292 292 293 294 295 296 297 298 299 299 300 300 301 301 301 300
261 264 268 270 270 268 270 270 271 273 275 276 277 278 279 280 281 281 283 284 284 285 286 288 289 290 290 291 292 293 293 294 295 297 297 298 298 299 300 300 299 299 300 300
266 268 269 267 269 270 271 273 274 275 276 278 277 278 281 281 281 281 283 285 285 286 287 287 288 289 290 291 292 294 294 295 297 297 298 299 300 298 299 300 301 301 301 300